 day,  time,  air_temp(C),  RH(%),  ground_temp10cm(C),  ground_temp20cm(C),  ground_temp40cm(C),  precipitation(mm/h),  Solar_Radiation(MJ/m2h),  lack, 
 02/02/01, 01:00,  -9.7,  74,   0.8,   1.2,   2.2,   0.0,  0.00, 
 02/02/01, 02:00,  -9.1,  68,   0.7,   1.2,   2.2,   0.0,  0.00, 
 02/02/01, 03:00, -10.2,  73,   0.7,   1.2,   2.2,   0.0,  0.00, 
 02/02/01, 04:00, -10.3,  75,   0.7,   1.2,   2.2,   0.0,  0.00, 
 02/02/01, 05:00,  -8.8,  66,   0.7,   1.2,   2.2,   0.0,  0.00, 
 02/02/01, 06:00,  -9.7,  72,   0.7,   1.2,   2.2,   0.0,  0.00, 
 02/02/01, 07:00,  -9.0,  71,   0.7,   1.2,   2.2,   0.0,  0.00, 
 02/02/01, 08:00,  -9.0,  74,   0.7,   1.2,   2.2,   0.0,  0.07, 
 02/02/01, 09:00,  -5.8,  65,   0.7,   1.2,   2.2,   0.0,  0.46, 
 02/02/01, 10:00,  -4.7,  64,   0.7,   1.2,   2.2,   0.0,  1.18, 
 02/02/01, 11:00,  -3.6,  61,   0.8,   1.3,   2.3,   0.0,  2.04, 
 02/02/01, 12:00,  -4.0,  63,   0.9,   1.3,   2.3,   0.0,  2.39, 
 02/02/01, 13:00,  -4.0,  67,   0.9,   1.3,   2.5,   0.0,  2.50, 
 02/02/01, 14:00,  -3.7,  70,   0.9,   1.3,   2.3,   0.0,  2.20, 
 02/02/01, 15:00,  -3.8,  64,   0.8,   1.3,   2.3,   0.0,  1.77, 
 02/02/01, 16:00,  -4.0,  70,   0.8,   1.3,   2.3,   0.0,  1.12, 
 02/02/01, 17:00,  -4.7,  74,   0.8,   1.3,   2.3,   0.0,  0.16, 
 02/02/01, 18:00,  -5.5,  80,   0.8,   1.2,   2.3,   0.0,  0.00, 
 02/02/01, 19:00,  -6.3,  83,   0.8,   1.2,   2.3,   0.0,  0.00, 
 02/02/01, 20:00,  -6.2,  82,   0.8,   1.2,   2.3,   0.0,  0.00, 
 02/02/01, 21:00,  -6.5,  84,   0.8,   1.2,   2.3,   0.0,  0.00, 
 02/02/01, 22:00,  -6.7,  85,   0.8,   1.2,   2.3,   0.0,  0.00, 
 02/02/01, 23:00,  -6.2,  84,   0.8,   1.2,   2.3,   0.0,  0.00, 
 02/02/02, 00:00,  -7.0,  84,   0.8,   1.2,   2.2,   0.0,  0.00, 
 02/02/02, 01:00,  -5.8,  82,   0.7,   1.2,   2.2,   0.0,  0.00, 
 02/02/02, 02:00,  -7.9,  91,   0.7,   1.2,   2.3,   0.0,  0.00, 
 02/02/02, 03:00,  -7.4,  89,   0.7,   1.2,   2.2,   0.0,  0.00, 
 02/02/02, 04:00,  -7.4,  85,   0.7,   1.2,   2.2,   0.0,  0.00, 
 02/02/02, 05:00,  -4.2,  70,   0.7,   1.2,   2.2,   0.0,  0.00, 
 02/02/02, 06:00,  -6.7,  83,   0.7,   1.2,   2.2,   0.0,  0.00, 
 02/02/02, 07:00,  -5.2,  77,   0.7,   1.2,   2.2,   0.0,  0.00, 
 02/02/02, 08:00,  -5.2,  82,   0.7,   1.2,   2.2,   0.0,  0.19, 
 02/02/02, 09:00,  -2.8,  70,   0.7,   1.2,   2.2,   0.0,  0.61, 
 02/02/02, 10:00,  -3.1,  74,   0.7,   1.2,   2.2,   0.0,  0.99, 
 02/02/02, 11:00,  -1.3,  70,   0.7,   1.2,   2.2,   0.0,  1.09, 
 02/02/02, 12:00,  -0.5,  66,   0.8,   1.2,   2.3,   0.0,  1.14, 
 02/02/02, 13:00,  -0.3,  69,   0.8,   1.2,   2.2,   0.5,  1.26, 
 02/02/02, 14:00,  -0.4,  54,   0.7,   1.2,   2.2,   0.0,  0.95, 
 02/02/02, 15:00,  -1.0,  50,   0.7,   1.2,   2.2,   0.0,  0.61, 
 02/02/02, 16:00,  -1.6,  54,   0.7,   1.2,   2.3,   0.0,  0.24, 
 02/02/02, 17:00,  -1.5,  51,   0.8,   1.2,   2.2,   0.0,  0.05, 
 02/02/02, 18:00,  -2.5,  73,   0.7,   1.2,   2.2,   0.0,  0.00, 
 02/02/02, 19:00,  -2.1,  56,   0.7,   1.2,   2.2,   0.0,  0.00, 
 02/02/02, 20:00,  -2.7,  74,   0.7,   1.2,   2.2,   0.0,  0.00, 
 02/02/02, 21:00,  -1.9,  64,   0.7,   1.2,   2.2,   0.0,  0.00, 
 02/02/02, 22:00,  -1.9,  65,   0.6,   1.2,   2.2,   0.0,  0.00, 
 02/02/02, 23:00,  -3.0,  75,   0.7,   1.2,   2.2,   0.0,  0.00, 
 02/02/03, 00:00,  -2.6,  67,   0.7,   1.2,   2.2,   0.0,  0.00, 
 02/02/03, 01:00,  -3.3,  77,   0.7,   1.2,   2.2,   0.0,  0.00, 
 02/02/03, 02:00,  -3.4,  80,   0.7,   1.2,   2.2,   0.0,  0.00, 
 02/02/03, 03:00,  -3.5,  81,   0.6,   1.2,   2.2,   0.0,  0.00, 
 02/02/03, 04:00,  -4.0,  89,   0.6,   1.2,   2.2,   0.0,  0.00, 
 02/02/03, 05:00,  -4.0,  88,   0.6,   1.2,   2.2,   0.0,  0.00, 
 02/02/03, 06:00,  -4.0,  87,   0.6,   1.2,   2.2,   0.0,  0.00, 
 02/02/03, 07:00,  -4.6,  96,   0.6,   1.2,   2.2,   0.0,  0.00, 
 02/02/03, 08:00,  -4.0,  89,   0.6,   1.2,   2.2,   0.0,  0.01, 
 02/02/03, 09:00,  -3.3,  86,   0.7,   1.2,   2.2,   0.0,  0.22, 
 02/02/03, 10:00,  -2.9,  94,   0.7,   1.2,   2.2,   0.0,  0.50, 
 02/02/03, 11:00,  -3.0,  93,   0.7,   1.2,   2.2,   0.0,  0.52, 
 02/02/03, 12:00,  -2.0,  92,   0.7,   1.2,   2.2,   0.0,  0.80, 
 02/02/03, 13:00,  -2.7,  99,   0.7,   1.2,   2.2,   0.0,  0.75, 
 02/02/03, 14:00,  -2.8,  97,   0.7,   1.2,   2.2,   0.0,  0.25, 
 02/02/03, 15:00,  -2.2,  96,   0.7,   1.2,   2.2,   0.0,  0.38, 
 02/02/03, 16:00,  -2.7,  99,   0.7,   1.2,   2.2,   0.0,  0.23, 
 02/02/03, 17:00,  -3.0,  99,   0.7,   1.2,   2.2,   1.5,  0.06, 
 02/02/03, 18:00,  -3.1,  99,   0.7,   1.2,   2.2,   0.0,  0.00, 
 02/02/03, 19:00,  -3.2,  99,   0.7,   1.2,   2.2,   0.5,  0.00, 
 02/02/03, 20:00,  -3.3,  99,   0.7,   1.2,   2.2,   0.0,  0.00, 
 02/02/03, 21:00,  -3.4,  99,   0.7,   1.2,   2.2,   0.0,  0.00, 
 02/02/03, 22:00,  -3.4,  99,   0.7,   1.2,   2.2,   0.0,  0.00, 
 02/02/03, 23:00,  -3.7,  99,   0.7,   1.2,   2.2,   0.0,  0.00, 
 02/02/04, 00:00,  -3.7,  99,   0.7,   1.2,   2.2,   0.0,  0.00, 
 02/02/04, 01:00,  -3.8,  99,   0.7,   1.2,   2.2,   0.0,  0.00, 
 02/02/04, 02:00,  -3.8,  99,   0.7,   1.2,   2.2,   0.0,  0.00, 
 02/02/04, 03:00,  -3.7,  99,   0.7,   1.2,   2.2,   0.0,  0.00, 
 02/02/04, 04:00,  -3.9,  98,   0.7,   1.2,   2.2,   0.0,  0.00, 
 02/02/04, 05:00,  -4.1,  98,   0.7,   1.2,   2.2,   0.0,  0.00, 
 02/02/04, 06:00,  -4.2,  98,   0.7,   1.2,   2.2,   0.0,  0.00, 
 02/02/04, 07:00,  -4.5,  98,   0.7,   1.2,   2.2,   0.0,  0.00, 
 02/02/04, 08:00,  -4.4,  98,   0.7,   1.2,   2.2,   0.0,  0.03, 
 02/02/04, 09:00,  -4.4,  97,   0.7,   1.2,   2.2,   0.0,  0.19, 
 02/02/04, 10:00,  -3.6,  95,   0.7,   1.2,   2.2,   0.0,  0.52, 
 02/02/04, 11:00,  -2.3,  98,   0.7,   1.2,   2.2,   0.0,  1.16, 
 02/02/04, 12:00,  -2.2,  99,   0.7,   1.2,   2.2,   0.0,  1.03, 
 02/02/04, 13:00,  -1.1,  99,   0.7,   1.2,   2.2,   0.0,  1.69, 
 02/02/04, 14:00,  -0.6,  97,   0.7,   1.2,   2.2,   0.0,  1.95, 
 02/02/04, 15:00,   0.5,  92,   0.8,   1.2,   2.2,   0.0,  1.69, 
 02/02/04, 16:00,   0.2,  85,   0.7,   1.2,   2.2,   0.0,  1.28, 
 02/02/04, 17:00,  -0.5,  86,   0.8,   1.2,   2.3,   0.0,  0.26, 
 02/02/04, 18:00,  -1.5,  93,   0.8,   1.2,   2.2,   0.0,  0.00, 
 02/02/04, 19:00,  -1.6,  93,   0.7,   1.2,   2.2,   0.0,  0.00, 
 02/02/04, 20:00,  -1.8,  93,   0.7,   1.2,   2.2,   0.0,  0.00, 
 02/02/04, 21:00,  -1.6,  92,   0.7,   1.2,   2.2,   0.0,  0.00, 
 02/02/04, 22:00,  -2.3,  96,   0.7,   1.2,   2.2,   0.0,  0.00, 
 02/02/04, 23:00,  -3.3,  98,   0.7,   1.2,   2.2,   0.0,  0.00, 
 02/02/05, 00:00,  -3.2,  92,   0.7,   1.2,   2.2,   0.0,  0.00, 
 02/02/05, 01:00,  -3.2,  93,   0.7,   1.2,   2.2,   0.0,  0.00, 
 02/02/05, 02:00,  -4.3,  98,   0.7,   1.2,   2.2,   0.0,  0.00, 
 02/02/05, 03:00,  -4.1,  94,   0.7,   1.2,   2.2,   0.0,  0.00, 
 02/02/05, 04:00,  -3.0,  94,   0.7,   1.2,   2.2,   0.0,  0.00, 
 02/02/05, 05:00,  -2.2,  88,   0.7,   1.2,   2.2,   0.0,  0.00, 
 02/02/05, 06:00,  -2.4,  87,   0.7,   1.2,   2.2,   0.0,  0.00, 
 02/02/05, 07:00,  -3.7,  92,   0.7,   1.2,   2.2,   0.0,  0.00, 
 02/02/05, 08:00,  -2.0,  78,   0.7,   1.2,   2.2,   0.0,  0.11, 
 02/02/05, 09:00,  -1.1,  76,   0.7,   1.2,   2.2,   0.0,  0.44, 
 02/02/05, 10:00,   0.6,  72,   0.7,   1.2,   2.2,   0.0,  0.77, 
 02/02/05, 11:00,   1.6,  60,   0.8,   1.2,   2.3,   0.0,  1.00, 
 02/02/05, 12:00,   2.3,  62,   0.8,   1.3,   2.3,   0.0,  1.08, 
 02/02/05, 13:00,   2.0,  72,   0.8,   1.3,   2.3,   0.0,  1.01, 
 02/02/05, 14:00,   2.6,  71,   0.8,   1.2,   2.3,   0.0,  0.92, 
 02/02/05, 15:00,   2.1,  78,   0.8,   1.2,   2.3,   0.0,  0.70, 
 02/02/05, 16:00,   1.4,  80,   0.8,   1.2,   2.3,   0.0,  0.45, 
 02/02/05, 17:00,   1.1,  62,   0.8,   1.2,   2.3,   0.0,  0.13, 
 02/02/05, 18:00,  -0.4,  82,   0.8,   1.2,   2.3,   0.0,  0.00, 
 02/02/05, 19:00,  -0.3,  79,   0.8,   1.2,   2.3,   0.0,  0.00, 
 02/02/05, 20:00,  -1.1,  83,   0.8,   1.2,   2.3,   0.0,  0.00, 
 02/02/05, 21:00,  -1.7,  92,   0.8,   1.2,   2.3,   0.0,  0.00, 
 02/02/05, 22:00,  -1.6,  93,   0.8,   1.2,   2.3,   0.0,  0.00, 
 02/02/05, 23:00,  -1.6,  97,   0.8,   1.2,   2.3,   0.0,  0.00, 
 02/02/06, 00:00,  -1.5,  97,   0.8,   1.2,   2.3,   0.0,  0.00, 
 02/02/06, 01:00,  -1.5,  99,   0.8,   1.2,   2.3,   2.0,  0.00, 
 02/02/06, 02:00,  -1.8,  99,   0.8,   1.2,   2.3,   0.0,  0.00, 
 02/02/06, 03:00,  -2.1,  99,   0.7,   1.2,   2.2,   0.0,  0.00, 
 02/02/06, 04:00,  -2.0,  98,   0.9,   1.2,   2.3,   0.0,  0.00, 
 02/02/06, 05:00,  -2.3,  96,   0.9,   1.2,   2.3,   0.0,  0.00, 
 02/02/06, 06:00,  -3.2,  97,   0.7,   1.2,   2.2,   0.0,  0.00, 
 02/02/06, 07:00,  -3.2,  94,   0.7,   1.2,   2.2,   0.0,  0.00, 
 02/02/06, 08:00,  -3.1,  99,   0.8,   1.3,   2.2,   0.0,  0.18, 
 02/02/06, 09:00,  -1.1,  85,   0.9,   1.2,   2.3,   0.0,  0.64, 
 02/02/06, 10:00,   0.6,  82,   0.9,   1.2,   2.3,   0.0,  1.13, 
 02/02/06, 11:00,   1.2,  71,   0.9,   1.2,   2.3,   0.0,  1.83, 
 02/02/06, 12:00,   1.4,  69,   0.9,   1.3,   2.3,   0.0,  2.14, 
 02/02/06, 13:00,   2.0,  75,   0.9,   1.4,   2.3,   0.0,  2.22, 
 02/02/06, 14:00,   1.8,  78,   0.9,   1.3,   2.3,   0.0,  2.21, 
 02/02/06, 15:00,   1.5,  74,   0.9,   1.3,   2.3,   0.0,  2.02, 
 02/02/06, 16:00,   1.2,  76,   0.9,   1.3,   2.3,   0.0,  1.15, 
 02/02/06, 17:00,  -0.2,  69,   0.9,   1.3,   2.4,   0.5,  0.40, 
 02/02/06, 18:00,  -1.9,  75,   0.9,   1.3,   2.3,   0.0,  0.00, 
 02/02/06, 19:00,  -2.9,  73,   0.9,   1.3,   2.3,   0.0,  0.00, 
 02/02/06, 20:00,  -3.8,  76,   0.9,   1.3,   2.4,   0.0,  0.00, 
 02/02/06, 21:00,  -3.5,  76,   0.9,   1.3,   2.3,   0.0,  0.00, 
 02/02/06, 22:00,  -4.3,  82,   0.9,   1.3,   2.3,   0.0,  0.00, 
 02/02/06, 23:00,  -3.9,  80,   0.9,   1.3,   2.3,   0.0,  0.00, 
 02/02/07, 00:00,  -4.2,  65,   0.9,   1.3,   2.3,   0.0,  0.00, 
 02/02/07, 01:00,  -0.9,  48,   0.9,   1.3,   2.3,   0.0,  0.00, 
 02/02/07, 02:00,  -3.0,  62,   0.9,   1.3,   2.3,   0.0,  0.00, 
 02/02/07, 03:00,  -3.0,  63,   0.9,   1.3,   2.3,   0.0,  0.00, 
 02/02/07, 04:00,  -2.4,  64,   0.9,   1.3,   2.3,   0.0,  0.00, 
 02/02/07, 05:00,  -2.4,  72,   0.8,   1.3,   2.2,   0.0,  0.00, 
 02/02/07, 06:00,  -5.1,  83,   0.9,   1.3,   2.2,   0.0,  0.00, 
 02/02/07, 07:00,  -2.8,  79,   0.8,   1.3,   2.2,   0.0,  0.00, 
 02/02/07, 08:00,  -1.3,  62,   0.8,   1.3,   2.2,   0.0,  0.25, 
 02/02/07, 09:00,  -1.0,  69,   0.8,   1.3,   2.2,   0.0,  0.43, 
 02/02/07, 10:00,  -0.7,  71,   0.9,   1.3,   2.3,   0.0,  0.51, 
 02/02/07, 11:00,  -0.9,  74,   0.9,   1.3,   2.3,   0.0,  0.50, 
 02/02/07, 12:00,  -0.2,  76,   0.9,   1.4,   2.3,   0.0,  0.83, 
 02/02/07, 13:00,  -1.1,  85,   1.0,   1.4,   2.4,   0.0,  0.36, 
 02/02/07, 14:00,  -2.1,  99,   0.9,   1.4,   2.3,   0.5,  0.15, 
 02/02/07, 15:00,  -2.7,  99,   1.0,   1.4,   2.4,   0.0,  0.22, 
 02/02/07, 16:00,  -3.2,  99,   1.0,   1.4,   2.4,   1.5,  0.15, 
 02/02/07, 17:00,  -3.6,  98,   1.0,   1.4,   2.4,   2.0,  0.06, 
 02/02/07, 18:00,  -4.2,  97,   1.0,   1.4,   2.4,   0.0,  0.00, 
 02/02/07, 19:00,  -4.2,  98,   0.9,   1.4,   2.3,   1.0,  0.00, 
 02/02/07, 20:00,  -4.6,  96,   0.9,   1.3,   2.3,   1.0,  0.00, 
 02/02/07, 21:00,  -4.8,  95,   0.9,   1.3,   2.3,   2.0,  0.00, 
 02/02/07, 22:00,  -5.4,  92,   0.9,   1.3,   2.3,   0.0,  0.00, 
 02/02/07, 23:00,  -6.6,  92,   0.9,   1.3,   2.3,   0.0,  0.00, 
 02/02/08, 00:00,  -6.9,  84,   0.9,   1.3,   2.3,   0.0,  0.00, 
 02/02/08, 01:00,  -7.6,  83,   0.9,   1.3,   2.3,   0.0,  0.00, 
 02/02/08, 02:00,  -7.2,  78,   0.9,   1.3,   2.3,   0.0,  0.00, 
 02/02/08, 03:00,  -7.7,  81,   0.9,   1.3,   2.3,   0.0,  0.00, 
 02/02/08, 04:00,  -3.6,  43,   0.9,   1.3,   2.3,   0.0,  0.00, 
 02/02/08, 05:00,  -4.0,  40,   0.9,   1.3,   2.3,   0.0,  0.00, 
 02/02/08, 06:00,  -4.5,  48,   0.9,   1.3,   2.3,   0.0,  0.00, 
 02/02/08, 07:00,  -4.5,  46,   0.9,   1.3,   2.2,   0.0,  0.00, 
 02/02/08, 08:00,  -1.5,  28,   0.9,   1.3,   2.3,   0.5,  0.28, 
 02/02/08, 09:00,   0.0,  44,   0.9,   1.3,   2.3,   0.0,  0.94, 
 02/02/08, 10:00,   1.1,  71,   0.9,   1.3,   2.3,   0.0,  1.36, 
 02/02/08, 11:00,   4.2,  30,   0.9,   1.3,   2.3,   0.0,  2.13, 
 02/02/08, 12:00,   4.3,  22,   0.9,   1.4,   2.3,   0.0,  2.47, 
 02/02/08, 13:00,   3.4,  68,   0.9,   1.4,   2.3,   0.0,  2.13, 
 02/02/08, 14:00,   3.5,  46,   0.9,   1.4,   2.3,   0.0,  1.51, 
 02/02/08, 15:00,   3.9,  28,   0.9,   1.4,   2.3,   0.0,  1.12, 
 02/02/08, 16:00,   1.8,  57,   0.9,   1.3,   2.3,   0.0,  0.59, 
 02/02/08, 17:00,   0.7,  46,   0.9,   1.3,   2.3,   0.0,  0.20, 
 02/02/08, 18:00,  -1.1,  51,   0.9,   1.3,   2.3,   0.0,  0.00, 
 02/02/08, 19:00,  -0.5,  41,   0.9,   1.3,   2.3,   0.0,  0.00, 
 02/02/08, 20:00,  -0.9,  39,   0.9,   1.3,   2.3,   0.0,  0.00, 
 02/02/08, 21:00,  -0.9,  44,   0.9,   1.3,   2.3,   0.0,  0.00, 
 02/02/08, 22:00,  -1.1,  48,   0.9,   1.3,   2.3,   0.0,  0.00, 
 02/02/08, 23:00,  -1.5,  53,   0.9,   1.3,   2.3,   0.0,  0.00, 
 02/02/09, 00:00,  -1.8,  51,   0.9,   1.3,   2.3,   0.0,  0.00, 
 02/02/09, 01:00,  -2.3,  51,   0.9,   1.3,   2.3,   0.0,  0.00, 
 02/02/09, 02:00,  -2.4,  64,   0.9,   1.3,   2.3,   0.0,  0.00, 
 02/02/09, 03:00,  -2.5,  70,   0.9,   1.3,   2.3,   0.0,  0.00, 
 02/02/09, 04:00,  -3.4,  86,   0.9,   1.3,   2.3,   0.0,  0.00, 
 02/02/09, 05:00,  -3.4,  92,   0.9,   1.3,   2.3,   0.0,  0.00, 
 02/02/09, 06:00,  -3.4,  95,   0.9,   1.3,   2.2,   0.0,  0.00, 
 02/02/09, 07:00,  -3.5,  99,   0.9,   1.3,   2.2,   0.0,  0.00, 
 02/02/09, 08:00,  -4.2,  99,   0.9,   1.3,   2.3,   0.0,  0.03, 
 02/02/09, 09:00,  -4.2,  95,   0.9,   1.3,   2.3,   0.0,  0.25, 
 02/02/09, 10:00,  -4.9,  91,   0.9,   1.3,   2.2,   0.0,  0.30, 
 02/02/09, 11:00,  -3.2,  83,   0.8,   1.3,   2.3,   0.5,  1.18, 
 02/02/09, 12:00,  -3.9,  77,   0.9,   1.3,   2.3,   0.0,  1.70, 
 02/02/09, 13:00,  -3.2,  72,   0.9,   1.3,   2.3,   0.0,  2.32, 
 02/02/09, 14:00,  -5.4,  72,   0.9,   1.3,   2.3,   0.0,  1.91, 
 02/02/09, 15:00,  -5.6,  70,   0.9,   1.3,   2.3,   0.0,  1.59, 
 02/02/09, 16:00,  -6.6,  80,   0.9,   1.3,   2.3,   0.0,  0.85, 
 02/02/09, 17:00,  -7.9,  78,   0.9,   1.3,   2.3,   0.0,  0.26, 
 02/02/09, 18:00,  -8.9,  83,   0.9,   1.3,   2.3,   0.0,  0.00, 
 02/02/09, 19:00,  -9.2,  84,   0.9,   1.3,   2.3,   0.0,  0.00, 
 02/02/09, 20:00,  -9.8,  86,   0.9,   1.3,   2.3,   0.0,  0.00, 
 02/02/09, 21:00,  -9.4,  82,   0.9,   1.3,   2.3,   0.0,  0.00, 
 02/02/09, 22:00,  -9.8,  82,   0.9,   1.3,   2.3,   0.0,  0.00, 
 02/02/09, 23:00,  -9.8,  84,   0.9,   1.3,   2.3,   0.0,  0.00, 
 02/02/10, 00:00, -10.4,  84,   0.9,   1.3,   2.3,   0.0,  0.00, 
 02/02/10, 01:00, -10.4,  81,   0.9,   1.3,   2.3,   0.0,  0.00, 
 02/02/10, 02:00,  -9.9,  75,   0.8,   1.3,   2.2,   0.0,  0.00, 
 02/02/10, 03:00,  -9.9,  73,   0.9,   1.3,   2.3,   0.0,  0.00, 
 02/02/10, 04:00, -10.7,  82,   0.9,   1.3,   2.3,   0.0,  0.00, 
 02/02/10, 05:00, -10.7,  85,   0.9,   1.3,   2.3,   0.0,  0.00, 
 02/02/10, 06:00, -10.7,  93,   0.9,   1.3,   2.2,   0.0,  0.00, 
 02/02/10, 07:00, -10.2,  74,   0.9,   1.3,   2.2,   0.0,  0.00, 
 02/02/10, 08:00,  -9.7,  78,   0.9,   1.3,   2.2,   0.0,  0.12, 
 02/02/10, 09:00,  -9.4,  90,   0.9,   1.3,   2.2,   0.0,  0.32, 
 02/02/10, 10:00,  -7.5,  79,   0.9,   1.3,   2.2,   0.0,  0.64, 
 02/02/10, 11:00,  -6.1,  76,   0.9,   1.3,   2.3,   0.0,  1.49, 
 02/02/10, 12:00,  -5.7,  67,   0.9,   1.3,   2.3,   0.0,  1.77, 
 02/02/10, 13:00,  -4.2,  58,   0.9,   1.3,   2.3,   0.0,  1.85, 
 02/02/10, 14:00,  -4.6,  57,   0.9,   1.3,   2.3,   0.0,  2.06, 
 02/02/10, 15:00,  -4.2,  55,   0.9,   1.3,   2.3,   0.0,  1.93, 
 02/02/10, 16:00,  -4.9,  57,   0.9,   1.3,   2.3,   0.0,  0.88, 
 02/02/10, 17:00,  -5.4,  63,   0.9,   1.3,   2.3,   0.0,  0.26, 
 02/02/10, 18:00,  -6.6,  70,   0.9,   1.3,   2.3,   0.0,  0.00, 
 02/02/10, 19:00,  -7.3,  88,   0.9,   1.3,   2.3,   0.0,  0.00, 
 02/02/10, 20:00,  -7.6,  93,   0.9,   1.3,   2.3,   0.0,  0.00, 
 02/02/10, 21:00,  -7.7,  95,   0.9,   1.3,   2.3,   0.5,  0.00, 
 02/02/10, 22:00,  -7.7,  94,   0.9,   1.3,   2.3,   2.0,  0.00, 
 02/02/10, 23:00,  -8.0,  95,   0.9,   1.3,   2.3,   0.0,  0.00, 
 02/02/11, 00:00,  -8.3,  95,   0.9,   1.3,   2.2,   1.0,  0.00, 
 02/02/11, 01:00,  -8.6,  93,   0.9,   1.3,   2.2,   0.0,  0.00, 
 02/02/11, 02:00,  -8.6,  94,   0.9,   1.3,   2.2,   1.0,  0.00, 
 02/02/11, 03:00,  -8.9,  94,   0.9,   1.3,   2.2,   1.0,  0.00, 
 02/02/11, 04:00,  -9.1,  94,   0.9,   1.3,   2.2,   0.0,  0.00, 
 02/02/11, 05:00,  -9.1,  94,   0.9,   1.3,   2.2,   0.5,  0.00, 
 02/02/11, 06:00,  -9.5,  93,   0.8,   1.3,   2.2,   0.0,  0.00, 
 02/02/11, 07:00,  -9.9,  94,   0.8,   1.3,   2.2,   0.0,  0.00, 
 02/02/11, 08:00, -10.3,  95,   0.8,   1.3,   2.2,   0.5,  0.11, 
 02/02/11, 09:00,  -9.0,  89,   0.9,   1.3,   2.2,   0.0,  0.73, 
 02/02/11, 10:00,  -9.4,  90,   0.9,   1.3,   2.3,   0.0,  0.54, 
 02/02/11, 11:00,  -8.0,  81,   0.9,   1.3,   2.3,   0.0,  0.77, 
 02/02/11, 12:00,  -7.5,  79,   0.9,   1.3,   2.3,   0.0,  0.80, 
 02/02/11, 13:00,  -7.9,  82,   0.9,   1.3,   2.2,   0.0,  0.80, 
 02/02/11, 14:00,  -7.1,  76,   0.9,   1.3,   2.3,   0.0,  0.63, 
 02/02/11, 15:00,  -7.3,  68,   0.9,   1.3,   2.3,   0.0,  0.57, 
 02/02/11, 16:00,  -7.6,  71,   0.9,   1.3,   2.2,   0.0,  0.48, 
 02/02/11, 17:00,  -8.2,  93,   0.9,   1.3,   2.2,   0.0,  0.07, 
 02/02/11, 18:00,  -8.3,  94,   0.9,   1.3,   2.2,   0.0,  0.00, 
 02/02/11, 19:00,  -8.5,  94,   0.8,   1.3,   2.2,   0.0,  0.00, 
 02/02/11, 20:00,  -8.7,  94,   0.8,   1.3,   2.2,   0.0,  0.00, 
 02/02/11, 21:00,  -8.9,  93,   0.8,   1.3,   2.2,   0.0,  0.00, 
 02/02/11, 22:00,  -9.2,  95,   0.8,   1.3,   2.2,   0.0,  0.00, 
 02/02/11, 23:00,  -9.4,  93,   0.8,   1.3,   2.2,   0.0,  0.00, 
 02/02/12, 00:00,  -9.2,  93,   0.8,   1.3,   2.2,   0.0,  0.00, 
 02/02/12, 01:00,  -9.1,  94,   0.8,   1.3,   2.2,   0.0,  0.00, 
 02/02/12, 02:00,  -9.3,  93,   0.8,   1.3,   2.2,   0.0,  0.00, 
 02/02/12, 03:00,  -9.6,  93,   0.8,   1.3,   2.2,   0.0,  0.00, 
 02/02/12, 04:00,  -9.6,  92,   0.8,   1.3,   2.2,   0.0,  0.00, 
 02/02/12, 05:00,  -9.8,  91,   0.8,   1.3,   2.2,   0.0,  0.00, 
 02/02/12, 06:00, -10.0,  90,   0.8,   1.3,   2.2,   0.0,  0.00, 
 02/02/12, 07:00,  -9.9,  92,   0.8,   1.3,   2.2,   0.5,  0.00, 
 02/02/12, 08:00,  -9.4,  92,   0.8,   1.3,   2.2,   0.5,  0.03, 
 02/02/12, 09:00,  -9.1,  93,   0.8,   1.3,   2.2,   0.5,  0.15, 
 02/02/12, 10:00,  -7.9,  87,   0.8,   1.3,   2.2,   0.5,  0.71, 
 02/02/12, 11:00,  -6.9,  99,   0.8,   1.3,   2.2,   0.0,  0.57, 
 02/02/12, 12:00,  -6.8,  99,   0.8,   1.3,   2.2,   0.5,  0.95, 
 02/02/12, 13:00,  -6.6,  99,   0.8,   1.3,   2.2,   0.0,  0.70, 
 02/02/12, 14:00,  -6.2,  99,   0.8,   1.3,   2.2,   0.0,  0.63, 
 02/02/12, 15:00,  -5.5,  99,   0.8,   1.3,   2.2,   0.0,  0.71, 
 02/02/12, 16:00,  -5.8,  93,   0.8,   1.3,   2.2,   0.0,  0.40, 
 02/02/12, 17:00,  -6.7,  91,   0.8,   1.3,   2.2,   0.5,  0.17, 
 02/02/12, 18:00,  -7.2,  97,   0.8,   1.3,   2.2,   0.0,  0.00, 
 02/02/12, 19:00,  -7.8,  97,   0.8,   1.3,   2.2,   0.0,  0.00, 
 02/02/12, 20:00,  -7.9,  90,   0.8,   1.3,   2.2,   0.0,  0.00, 
 02/02/12, 21:00,  -7.9,  86,   0.8,   1.3,   2.2,   0.0,  0.00, 
 02/02/12, 22:00,  -8.2,  85,   0.8,   1.3,   2.2,   0.0,  0.00, 
 02/02/12, 23:00,  -9.4,  92,   0.8,   1.3,   2.2,   0.0,  0.00, 
 02/02/13, 00:00,  -8.9,  89,   0.8,   1.3,   2.2,   0.0,  0.00, 
 02/02/13, 01:00,  -8.5,  91,   0.8,   1.3,   2.2,   0.0,  0.00, 
 02/02/13, 02:00,  -8.7,  95,   0.8,   1.3,   2.2,   0.0,  0.00, 
 02/02/13, 03:00,  -8.2,  87,   0.8,   1.3,   2.2,   0.0,  0.00, 
 02/02/13, 04:00,  -9.0,  92,   0.8,   1.3,   2.2,   0.0,  0.00, 
 02/02/13, 05:00,  -8.0,  93,   0.8,   1.3,   2.2,   0.0,  0.00, 
 02/02/13, 06:00,  -7.9,  94,   0.8,   1.3,   2.2,   0.0,  0.00, 
 02/02/13, 07:00,  -7.7,  93,   0.8,   1.3,   2.2,   0.0,  0.00, 
 02/02/13, 08:00,  -7.3,  99,   0.8,   1.3,   2.2,   0.0,  0.07, 
 02/02/13, 09:00,  -7.0,  96,   0.8,   1.3,   2.2,   0.0,  0.26, 
 02/02/13, 10:00,  -6.5,  99,   0.9,   1.3,   2.2,   0.5,  0.40, 
 02/02/13, 11:00,  -6.7,  99,   0.9,   1.3,   2.3,   0.0,  0.52, 
 02/02/13, 12:00,  -6.0,  94,   0.9,   1.4,   2.3,   0.0,  0.50, 
 02/02/13, 13:00,  -5.1,  96,   0.9,   1.4,   2.3,   0.0,  0.80, 
 02/02/13, 14:00,  -5.3,  92,   0.9,   1.3,   2.3,   0.0,  0.68, 
 02/02/13, 15:00,  -5.8,  92,   0.9,   1.4,   2.3,   0.0,  0.66, 
 02/02/13, 16:00,  -6.5,  89,   1.0,   1.4,   2.3,   0.0,  0.57, 
 02/02/13, 17:00,  -6.3,  89,   0.9,   1.4,   2.3,   0.0,  0.35, 
 02/02/13, 18:00,  -8.4,  91,   0.9,   1.3,   2.3,   0.0,  0.02, 
 02/02/13, 19:00, -10.8,  92,   0.9,   1.3,   2.3,   0.0,  0.00, 
 02/02/13, 20:00,  -9.6,  90,   0.9,   1.3,   2.3,   0.0,  0.00, 
 02/02/13, 21:00, -11.5,  92,   0.9,   1.3,   2.3,   0.0,  0.00, 
 02/02/13, 22:00, -11.9,  89,   0.9,   1.3,   2.2,   0.0,  0.00, 
 02/02/13, 23:00, -10.0,  76,   0.9,   1.3,   2.2,   0.0,  0.00, 
 02/02/14, 00:00, -11.0,  79,   0.9,   1.3,   2.2,   0.0,  0.00, 
 02/02/14, 01:00,  -9.3,  65,   0.8,   1.3,   2.2,   0.0,  0.00, 
 02/02/14, 02:00, -10.6,  71,   0.8,   1.3,   2.2,   0.0,  0.00, 
 02/02/14, 03:00, -11.4,  75,   0.9,   1.3,   2.2,   0.0,  0.00, 
 02/02/14, 04:00, -11.6,  79,   0.8,   1.3,   2.2,   0.0,  0.00, 
 02/02/14, 05:00, -12.4,  85,   0.8,   1.3,   2.2,   0.0,  0.00, 
 02/02/14, 06:00, -10.7,  71,   0.8,   1.3,   2.2,   0.5,  0.00, 
 02/02/14, 07:00, -12.9,  84,   0.8,   1.3,   2.2,   0.0,  0.00, 
 02/02/14, 08:00,  -8.6,  67,   0.8,   1.3,   2.2,   0.0,  0.26, 
 02/02/14, 09:00,  -8.1,  69,   0.9,   1.3,   2.2,   0.0,  0.77, 
 02/02/14, 10:00,  -6.4,  81,   0.9,   1.4,   2.3,   0.0,  1.15, 
 02/02/14, 11:00,  -6.6,  78,   0.9,   1.4,   2.3,   0.0,  1.56, 
 02/02/14, 12:00,  -5.0,  67,   1.0,   1.4,   2.3,   0.0,  2.60, 
 02/02/14, 13:00,  -5.2,  68,   1.0,   1.4,   2.3,   0.0,  2.77, 
 02/02/14, 14:00,  -5.3,  68,   1.0,   1.4,   2.3,   0.0,  1.53, 
 02/02/14, 15:00,  -5.4,  66,   1.0,   1.4,   2.4,   0.0,  1.58, 
 02/02/14, 16:00,  -6.1,  73,   1.0,   1.4,   2.3,   0.0,  0.81, 
 02/02/14, 17:00,  -7.5,  74,   1.0,   1.4,   2.3,   0.0,  0.38, 
 02/02/14, 18:00,  -8.4,  80,   1.0,   1.4,   2.3,   0.0,  0.02, 
 02/02/14, 19:00,  -8.6,  89,   0.9,   1.4,   2.3,   0.0,  0.00, 
 02/02/14, 20:00,  -8.7,  92,   0.9,   1.4,   2.3,   0.0,  0.00, 
 02/02/14, 21:00,  -9.0,  91,   0.9,   1.4,   2.3,   0.0,  0.00, 
 02/02/14, 22:00,  -9.7,  89,   0.9,   1.4,   2.3,   0.0,  0.00, 
 02/02/14, 23:00,  -9.7,  92,   0.9,   1.3,   2.3,   0.0,  0.00, 
 02/02/15, 00:00, -10.9,  90,   0.9,   1.2,   2.3,   0.0,  0.00, 
 02/02/15, 01:00,  -9.6,  80,   0.9,   1.3,   2.3,   0.0,  0.00, 
 02/02/15, 02:00,  -9.8,  91,   0.9,   1.3,   2.3,   0.0,  0.00, 
 02/02/15, 03:00, -10.0,  89,   0.9,   1.3,   2.2,   0.0,  0.00, 
 02/02/15, 04:00, -10.1,  83,   0.9,   1.3,   2.2,   0.0,  0.00, 
 02/02/15, 05:00,  -9.9,  87,   0.8,   1.2,   2.2,   0.5,  0.00, 
 02/02/15, 06:00,  -9.8,  86,   0.9,   1.2,   2.2,   0.0,  0.00, 
 02/02/15, 07:00,  -9.6,  85,   0.7,   1.2,   2.2,   0.0,  0.00, 
 02/02/15, 08:00,  -8.5,  78,   0.7,   1.2,   2.2,   0.0,  0.14, 
 02/02/15, 09:00,  -7.1,  78,   0.8,   1.2,   2.2,   0.0,  0.85, 
 02/02/15, 10:00,  -5.0,  74,   0.8,   1.2,   2.3,   0.0,  1.89, 
 02/02/15, 11:00,  -5.1,  67,   0.9,   1.3,   2.3,   0.0,  2.27, 
 02/02/15, 12:00,  -5.6,  64,   1.0,   1.3,   2.3,   0.0,  2.46, 
 02/02/15, 13:00,  -5.6,  63,   1.0,   1.3,   2.3,   0.0,  2.25, 
 02/02/15, 14:00,  -6.5,  59,   1.0,   1.3,   2.3,   0.0,  1.91, 
 02/02/15, 15:00,  -6.2,  73,   0.9,   1.3,   2.3,   0.0,  1.48, 
 02/02/15, 16:00,  -6.2,  67,   0.9,   1.3,   2.3,   0.0,  1.40, 
 02/02/15, 17:00,  -6.8,  73,   0.9,   1.3,   2.3,   0.0,  0.74, 
 02/02/15, 18:00,  -8.3,  84,   0.9,   1.3,   2.3,   0.0,  0.04, 
 02/02/15, 19:00,  -8.5,  87,   0.8,   1.3,   2.3,   0.0,  0.00, 
 02/02/15, 20:00,  -9.1,  85,   0.8,   1.3,   2.3,   0.0,  0.00, 
 02/02/15, 21:00,  -9.4,  88,   0.8,   1.3,   2.3,   0.0,  0.00, 
 02/02/15, 22:00,  -9.3,  91,   0.8,   1.3,   2.3,   0.0,  0.00, 
 02/02/15, 23:00,  -9.9,  89,   0.8,   1.3,   2.3,   0.0,  0.00, 
 02/02/16, 00:00, -11.2,  89,   0.8,   1.2,   2.3,   0.0,  0.00, 
 02/02/16, 01:00, -10.5,  81,   0.8,   1.2,   2.3,   0.0,  0.00, 